Regional Weather Roundup
Issued by NWS

Home | Current Version | Previous Version | Graphics & Text | Print | Product List | Glossary Off
Versions: 1 2 3 4 5 6 7 8 9 10 11 12 13 14 15 16 17 18 19 20 21 22 23 24 25 26 27 28 29 30 31 32 33 34 35 36 37 38 39 40 41 42 43 44 45 46 47 48 49 50

000
ASUS43 KTOP 240708
RWRKS

WEATHER ROUNDUP FOR KANSAS
NATIONAL WEATHER SERVICE GOODLAND KS
200 AM CDT FRI OCT 24 2014

NOTE:  "FAIR" INDICATES FEW OR NO CLOUDS BELOW 12,000 FEET WITH NO
SIGNIFICANT WEATHER AND/OR OBSTRUCTIONS TO VISIBILITY.

KSZ001>006-013>018-027>032-041>047-240800-
NORTHWEST KANSAS

CITY           SKY/WX    TMP DP  RH WIND       PRES   REMARKS
GOODLAND       PTCLDY    57  51  80 SW16      30.08R
HAYS           CLEAR     57  52  82 S6        30.05S
HILL CITY      CLEAR     59  55  87 W7        30.04R
RUSSELL        CLEAR     60  57  89 S14       30.03S
$$

KSZ061>065-074>080-084>089-240800-
SOUTHWEST KANSAS

CITY           SKY/WX    TMP DP  RH WIND       PRES   REMARKS
DODGE CITY     CLEAR     61  57  87 SW12      30.07S
ELKHART          N/A     56  50  81 SW8         N/A
GARDEN CITY    CLEAR     55  54  96 S6        30.07F FOG
GREAT BEND     CLEAR     57  54  88 S6        30.06S
LIBERAL        CLEAR     57  52  82 SW7       30.11S
PRATT          CLEAR     57  55  94 S3        30.07S FOG
$$

KSZ066>073-081>083-090>101-240800-
SOUTHEAST KANSAS

CITY           SKY/WX    TMP DP  RH WIND       PRES   REMARKS
CHANUTE        MOCLDY    55  54  96 SE6       30.11R FOG
COFFEYVILLE    PTCLDY    54  53  97 SE3       30.10F
HUTCHINSON     CLEAR     60  57  89 S6        30.06F
MEDICINE LODGE   N/A     61  59  93 E6        30.06S
NEWTON         CLEAR     57  54  88 SE7       30.09S
PARSONS        MOCLDY    55  54  96 CALM      30.12R
WICHITA INTL   PTCLDY    61  57  87 S9        30.06F
WICHITA JABRA  CLEAR     58  57  97 S7        30.07S
WICHITA MCCONL CLEAR     61  61 100 SE10      30.08S
WINFIELD       CLEAR     59  57  93 SE6       30.09S
$$

KSZ007>012-019>026-033>040-048>060-102>105-240800-
NORTHEAST KANSAS

CITY           SKY/WX    TMP DP  RH WIND       PRES   REMARKS
CONCORDIA      CLEAR     61  59  93 S9        30.02F FOG
EMPORIA        CLOUDY    57  57 100 S14       30.08S FOG
LAWRENCE       MOCLDY    54  53  97 S3        30.08S FOG
MANHATTAN      FOG       54  54 100 CALM      30.05S VSB 1/4
MARYSVILLE     CLEAR     57  55  94 S3        30.02S FOG
OLATHE IND     FOG       56  56 100 S7        30.09F VSB 1/4
OLATHE EXE     CLOUDY    57  57 100 S8        30.08F FOG
SALINA         CLEAR     59  57  93 S7        30.05S FOG
TOPEKA BILLARD MOCLDY    59  58  96 S8        30.07S FOG
TOPEKA FORBES  MOCLDY    58  56  93 S7        30.07S FOG
$$



USA.gov is the U.S. government's official web portal to all federal, state and local government web resources and services.